ARIANE 5 DEB (SYLDA), 40735

Orbit data source: Space-Track

ARIANE 5 DEB (SYLDA), 40735 is space debris in HEO originally from a launch on Wed, 15 Jul 2015 UTC launched from the French Guiana (FRGUI). Debris objects in space refer to the collection of defunct objects orbiting the Earth. Examples of debris include non-operational satellites, rocket bodies, and fragments generated from explosions, collisions, or faulty payload assembly.

Loading next visibility...
Identifier
40735, 2015-034D
Orbit
HEO
Last TLE update
2 hours ago
Origin
Manufacturer
ADS/Bremen
Mission
Spacecraft
Bus & Motor
SYLDA 5, Unknown motor
Mass
440 kg wet, 440 kg dry
Launch date (UTC)
2015-07-15 (10 years ago)
Launch vehicle
Unknown
Launch site
French Guiana (FRGUI)
Object type
Payload
Rocket body
Debris
Shape & HBR
Cyl, 5.5 m
Radar Cross Section
27.391 m², Large (>1 m²)

Expand to show TLE details & history

TLE from 2 hours ago
0 ARIANE 5 DEB (SYLDA)
1 40735U 15034D   25187.23735517  .00390822 -19974-6  89021-2 0  9991
2 40735   3.8641 216.2815 5640848 261.9137  33.9183  4.68825247105630
Epoch: 2025-07-06T05:41Z
TLE epoch observation values (Epoch: 2025-07-06T05:41:47.486Z)
Latitude
-0°
Longitude
-153.54462°
Altitude
4,796.434 km
Speed
6.701 km/s
True Right ascension
14h 25m 28s
True Declination
0° 00' 00"
Sunlit
Object was in daylight at epoch
Visualization orbit readout
Latitude
3.86578°
Longitude
-62.6484°
Altitude
16,835.554 km
Speed
2.812 km/s
Apparent Right ascension
20h 35m 02s
Apparent Declination
-7° 48' 33"
Sunlit
Object is in daylight
Visualization observer readout
Local Sidereal Time
20:06:39
Azimuth
170.545° S
Elevation
41.825°
Doppler factor
1
Orbital elements
Apogee altitude
17,215.966 km
Perigee altitude
197.611 km
Semi-major axis
15,084.926 km
Eccentricity
0.56408
Inclination
3.8641°
RAAN
216.2815°
Arg. of periapsis
261.9137°
True anomaly
Unknown
Mean anomaly
33.9183°
Eccentric anomaly
Unknown
Mean motion
1.17146 °/min
Orbital period
307.31 mins
BSTAR
0.0089021
Loading maneuver chart data...
Loading SW <> Apogee altitude chart data...
Loading historical data...
Loading historical data...
Loading historical data...
Loading historical data...
Loading historical data...
Loading historical data...
Loading historical data...

ARIANE 5 DEB (SYLDA) Visibility forecast

Observer location: undefined°, undefined°

Span
Click to sort rows by Start time (UTC) header in descending order
Start Az.
Max El. time (UTC)
Max El. Az.
Max El.
End time (UTC)
End Az.
90 mins2025-07-06 08:08:52.122Z170.553° S2025-07-06 08:08:52.122Z170.553° S33.682°2025-07-06 09:38:52.122Z127.178° SE
24 mins2025-07-06 14:37:52.122Z239.167° WSW2025-07-06 14:52:52.122Z223.914° SW11.646°2025-07-06 15:01:52.122Z206.238° SW
153 mins2025-07-07 02:04:52.122Z184.931° SSW2025-07-07 02:28:52.122Z142.719° SSE20.76°2025-07-07 04:37:52.122Z107.976° ESE
25 mins2025-07-07 07:43:52.122Z240.116° WSW2025-07-07 08:08:52.122Z230.288° WSW22.09°2025-07-07 08:08:52.122Z230.288° WSW
|